Time,TemperatureF,DewpointF,PressureIn,WindDirection,WindDirectionDegrees,WindSpeedMPH,WindSpeedGustMPH,Humidity,HourlyPrecipIn,Conditions,Clouds,dailyrainin,SoftwareType,DateUTC
2013-02-11 00:00:00,27.4,24.3,30.06,East,90,0.0,1.1,88,0.00,,,0.00,WUHU216HW,2013-02-11 08:00:00,
2013-02-11 00:05:00,27.5,24.5,30.06,East,90,0.0,1.1,88,0.00,,,0.00,WUHU216HW,2013-02-11 08:05:00,
2013-02-11 00:10:00,27.7,24.9,30.06,East,90,0.0,0.0,89,0.00,,,0.00,WUHU216HW,2013-02-11 08:10:00,
2013-02-11 00:15:00,27.9,25.1,30.06,East,90,0.0,0.0,89,0.00,,,0.00,WUHU216HW,2013-02-11 08:15:00,
2013-02-11 00:20:00,27.9,25.1,30.05,East,90,0.0,0.0,89,0.00,,,0.00,WUHU216HW,2013-02-11 08:20:00,
2013-02-11 00:25:00,28.1,25.3,30.05,East,90,0.0,0.0,89,0.00,,,0.00,WUHU216HW,2013-02-11 08:25:00,
2013-02-11 00:30:00,28.3,25.5,30.05,East,90,0.0,0.0,89,0.00,,,0.00,WUHU216HW,2013-02-11 08:30:00,
2013-02-11 00:35:00,28.4,25.7,30.05,East,90,0.0,0.0,89,0.00,,,0.00,WUHU216HW,2013-02-11 08:35:00,
2013-02-11 00:40:00,28.4,25.7,30.05,East,90,0.0,0.0,89,0.00,,,0.00,WUHU216HW,2013-02-11 08:40:00,
2013-02-11 00:45:00,28.4,25.7,30.05,East,90,0.0,0.0,89,0.00,,,0.00,WUHU216HW,2013-02-11 08:45:00,
2013-02-11 00:50:00,28.6,25.8,30.05,East,90,0.0,0.0,89,0.00,,,0.00,WUHU216HW,2013-02-11 08:50:00,
2013-02-11 00:55:00,28.8,26.0,30.05,East,90,0.0,0.0,89,0.00,,,0.00,WUHU216HW,2013-02-11 08:55:00,
2013-02-11 01:00:00,28.8,26.0,30.05,East,90,0.0,0.0,89,0.00,,,0.00,WUHU216HW,2013-02-11 09:00:00,
2013-02-11 01:05:00,29.0,26.2,30.05,East,90,0.0,0.0,89,0.00,,,0.00,WUHU216HW,2013-02-11 09:05:00,
2013-02-11 01:10:00,29.0,26.2,30.05,East,90,0.0,0.0,89,0.00,,,0.00,WUHU216HW,2013-02-11 09:10:00,
2013-02-11 01:15:00,29.2,26.4,30.05,East,90,0.0,0.0,89,0.00,,,0.00,WUHU216HW,2013-02-11 09:15:00,
2013-02-11 01:20:00,29.2,26.4,30.05,East,90,0.0,0.0,89,0.00,,,0.00,WUHU216HW,2013-02-11 09:20:00,
2013-02-11 01:25:00,29.2,26.4,30.05,East,90,0.0,0.0,89,0.00,,,0.00,WUHU216HW,2013-02-11 09:25:00,
2013-02-11 01:30:00,29.2,26.4,30.05,East,90,0.0,0.0,89,0.00,,,0.00,WUHU216HW,2013-02-11 09:30:00,
2013-02-11 01:35:00,29.3,26.6,30.05,East,90,0.0,0.0,89,0.00,,,0.00,WUHU216HW,2013-02-11 09:35:00,
2013-02-11 01:40:00,29.3,26.6,30.05,East,90,0.0,0.0,89,0.00,,,0.00,WUHU216HW,2013-02-11 09:40:00,
2013-02-11 01:45:00,29.3,26.6,30.05,East,90,0.0,0.0,89,0.00,,,0.00,WUHU216HW,2013-02-11 09:45:00,
2013-02-11 01:50:00,29.3,26.6,30.05,East,90,0.0,0.0,89,0.00,,,0.00,WUHU216HW,2013-02-11 09:50:00,
2013-02-11 01:55:00,29.3,26.3,30.05,East,90,0.0,0.0,88,0.00,,,0.00,WUHU216HW,2013-02-11 09:55:00,
2013-02-11 02:00:00,29.3,26.3,30.05,East,90,0.4,0.7,88,0.00,,,0.00,WUHU216HW,2013-02-11 10:00:00,
2013-02-11 02:05:00,29.3,26.3,30.05,East,90,0.0,0.7,88,0.00,,,0.00,WUHU216HW,2013-02-11 10:05:00,
2013-02-11 02:10:00,29.5,26.5,30.05,East,90,0.0,0.4,88,0.00,,,0.00,WUHU216HW,2013-02-11 10:10:00,
2013-02-11 02:15:00,29.5,26.5,30.05,East,90,0.0,0.0,88,0.00,,,0.00,WUHU216HW,2013-02-11 10:15:00,
2013-02-11 02:20:00,29.5,26.5,30.05,East,90,0.0,2.0,88,0.00,,,0.00,WUHU216HW,2013-02-11 10:20:00,
2013-02-11 02:25:00,29.5,26.5,30.05,East,90,0.2,2.0,88,0.00,,,0.00,WUHU216HW,2013-02-11 10:25:00,
2013-02-11 02:30:00,29.7,26.7,30.05,East,90,0.0,1.3,88,0.00,,,0.00,WUHU216HW,2013-02-11 10:30:00,
2013-02-11 02:35:00,29.7,26.7,30.05,East,90,0.0,0.4,88,0.00,,,0.00,WUHU216HW,2013-02-11 10:35:00,
2013-02-11 02:40:00,29.9,26.8,30.05,East,90,0.0,0.0,88,0.00,,,0.00,WUHU216HW,2013-02-11 10:40:00,
2013-02-11 02:45:00,29.9,26.8,30.05,East,90,0.0,0.0,88,0.00,,,0.00,WUHU216HW,2013-02-11 10:45:00,
2013-02-11 02:50:00,30.1,27.0,30.05,East,90,0.0,0.0,88,0.00,,,0.00,WUHU216HW,2013-02-11 10:50:00,
2013-02-11 02:55:00,30.1,27.0,30.05,East,90,0.0,0.0,88,0.00,,,0.00,WUHU216HW,2013-02-11 10:55:00,
2013-02-11 03:00:00,30.1,27.0,30.05,East,90,0.0,0.0,88,0.00,,,0.00,WUHU216HW,2013-02-11 11:00:00,
2013-02-11 03:05:00,30.2,27.2,30.05,East,90,0.0,0.0,88,0.00,,,0.00,WUHU216HW,2013-02-11 11:05:00,
2013-02-11 03:10:00,30.2,27.5,30.05,East,90,0.0,0.0,89,0.00,,,0.00,WUHU216HW,2013-02-11 11:10:00,
2013-02-11 03:15:00,30.2,27.5,30.05,East,90,0.0,0.0,89,0.00,,,0.00,WUHU216HW,2013-02-11 11:15:00,
2013-02-11 03:20:00,30.2,27.5,30.05,East,90,0.0,0.0,89,0.00,,,0.00,WUHU216HW,2013-02-11 11:20:00,
2013-02-11 03:25:00,30.2,27.5,30.05,East,90,0.0,0.0,89,0.00,,,0.00,WUHU216HW,2013-02-11 11:25:00,
2013-02-11 03:30:00,30.2,27.5,30.04,East,90,0.0,0.0,89,0.00,,,0.00,WUHU216HW,2013-02-11 11:30:00,
2013-02-11 03:35:00,30.4,27.6,30.05,East,90,0.0,0.0,89,0.00,,,0.00,WUHU216HW,2013-02-11 11:35:00,
2013-02-11 03:40:00,30.4,27.6,30.04,East,90,0.0,0.0,89,0.00,,,0.00,WUHU216HW,2013-02-11 11:40:00,
2013-02-11 03:45:00,30.4,27.6,30.04,East,90,0.0,0.0,89,0.00,,,0.00,WUHU216HW,2013-02-11 11:45:00,
2013-02-11 03:50:00,30.4,27.6,30.05,East,90,0.4,0.9,89,0.00,,,0.00,WUHU216HW,2013-02-11 11:50:00,
2013-02-11 03:55:00,30.6,27.8,30.05,East,90,0.0,0.9,89,0.00,,,0.00,WUHU216HW,2013-02-11 11:55:00,
2013-02-11 04:00:00,30.6,27.8,30.05,East,90,0.0,0.4,89,0.00,,,0.00,WUHU216HW,2013-02-11 12:00:00,
2013-02-11 04:05:00,30.6,27.8,30.05,East,90,0.0,0.0,89,0.00,,,0.00,WUHU216HW,2013-02-11 12:05:00,
2013-02-11 04:10:00,30.6,27.8,30.05,East,90,0.0,0.0,89,0.00,,,0.00,WUHU216HW,2013-02-11 12:10:00,
2013-02-11 04:15:00,30.6,27.8,30.05,East,90,0.0,0.0,89,0.00,,,0.00,WUHU216HW,2013-02-11 12:15:00,
2013-02-11 04:20:00,30.6,27.8,30.05,East,90,0.0,0.0,89,0.00,,,0.00,WUHU216HW,2013-02-11 12:20:00,
2013-02-11 04:25:00,30.6,27.8,30.05,East,90,0.0,0.0,89,0.00,,,0.00,WUHU216HW,2013-02-11 12:25:00,
2013-02-11 04:30:00,30.6,27.8,30.05,East,90,0.0,0.7,89,0.00,,,0.00,WUHU216HW,2013-02-11 12:30:00,
2013-02-11 04:35:00,30.6,27.8,30.05,East,90,0.0,0.7,89,0.00,,,0.00,WUHU216HW,2013-02-11 12:35:00,
2013-02-11 04:40:00,30.6,27.8,30.04,East,90,0.4,0.9,89,0.00,,,0.00,WUHU216HW,2013-02-11 12:40:00,
2013-02-11 04:45:00,30.6,27.8,30.04,East,90,0.0,0.9,89,0.00,,,0.00,WUHU216HW,2013-02-11 12:45:00,
2013-02-11 04:50:00,30.6,27.8,30.03,East,90,0.0,0.4,89,0.00,,,0.00,WUHU216HW,2013-02-11 12:50:00,
2013-02-11 04:55:00,30.6,27.8,30.03,East,90,0.0,0.0,89,0.00,,,0.00,WUHU216HW,2013-02-11 12:55:00,
2013-02-11 05:00:00,30.6,27.8,30.03,East,90,0.0,0.0,89,0.00,,,0.00,WUHU216HW,2013-02-11 13:00:00,
2013-02-11 05:05:00,30.6,27.8,30.04,East,90,0.0,0.0,89,0.00,,,0.00,WUHU216HW,2013-02-11 13:05:00,
2013-02-11 05:10:00,30.6,27.8,30.03,East,90,0.0,0.0,89,0.00,,,0.00,WUHU216HW,2013-02-11 13:10:00,
2013-02-11 05:15:00,30.6,27.8,30.03,East,90,0.0,0.0,89,0.00,,,0.00,WUHU216HW,2013-02-11 13:15:00,
2013-02-11 05:20:00,30.6,27.8,30.04,East,90,0.0,0.0,89,0.00,,,0.00,WUHU216HW,2013-02-11 13:20:00,
2013-02-11 05:25:00,30.6,27.8,30.03,East,90,0.0,0.0,89,0.00,,,0.00,WUHU216HW,2013-02-11 13:25:00,
2013-02-11 05:30:00,30.6,27.8,30.03,East,90,0.0,0.0,89,0.00,,,0.00,WUHU216HW,2013-02-11 13:30:00,
2013-02-11 05:35:00,30.6,27.8,30.03,East,90,0.0,0.0,89,0.00,,,0.00,WUHU216HW,2013-02-11 13:35:00,
2013-02-11 05:40:00,30.6,27.8,30.03,East,90,0.7,0.7,89,0.00,,,0.00,WUHU216HW,2013-02-11 13:40:00,
2013-02-11 05:45:00,30.6,27.8,30.03,East,90,0.0,0.7,89,0.00,,,0.00,WUHU216HW,2013-02-11 13:45:00,
2013-02-11 05:50:00,30.6,27.8,30.03,East,90,0.0,0.4,89,0.00,,,0.00,WUHU216HW,2013-02-11 13:50:00,
2013-02-11 05:55:00,30.6,27.8,30.03,East,90,1.1,1.1,89,0.00,,,0.00,WUHU216HW,2013-02-11 13:55:00,
2013-02-11 06:00:00,30.6,27.8,30.03,East,90,1.8,1.8,89,0.00,,,0.00,WUHU216HW,2013-02-11 14:00:00,
2013-02-11 06:05:00,30.6,27.8,30.03,East,90,0.4,2.5,89,0.00,,,0.00,WUHU216HW,2013-02-11 14:05:00,
2013-02-11 06:10:00,30.6,27.8,30.03,East,90,0.4,2.5,89,0.00,,,0.00,WUHU216HW,2013-02-11 14:10:00,
2013-02-11 06:15:00,30.6,27.8,30.03,East,90,0.0,1.3,89,0.00,,,0.00,WUHU216HW,2013-02-11 14:15:00,
2013-02-11 06:20:00,30.8,28.0,30.03,East,90,0.4,1.3,89,0.00,,,0.00,WUHU216HW,2013-02-11 14:20:00,
2013-02-11 06:25:00,30.8,28.0,30.03,East,90,0.0,1.3,89,0.00,,,0.00,WUHU216HW,2013-02-11 14:25:00,
2013-02-11 06:30:00,30.8,28.0,30.02,East,90,0.0,1.1,89,0.00,,,0.00,WUHU216HW,2013-02-11 14:30:00,
2013-02-11 06:35:00,30.8,28.0,30.03,East,90,0.0,0.0,89,0.00,,,0.00,WUHU216HW,2013-02-11 14:35:00,
2013-02-11 06:40:00,30.8,27.7,30.03,East,90,0.0,0.0,88,0.00,,,0.00,WUHU216HW,2013-02-11 14:40:00,
2013-02-11 06:45:00,31.0,28.2,30.02,East,90,0.0,0.0,89,0.00,,,0.00,WUHU216HW,2013-02-11 14:45:00,
2013-02-11 06:50:00,31.0,28.2,30.02,East,90,0.0,0.0,89,0.00,,,0.00,WUHU216HW,2013-02-11 14:50:00,
2013-02-11 06:55:00,31.0,28.2,30.02,East,90,0.0,0.0,89,0.00,,,0.00,WUHU216HW,2013-02-11 14:55:00,
2013-02-11 07:00:00,31.0,28.2,30.03,East,90,0.0,0.0,89,0.00,,,0.00,WUHU216HW,2013-02-11 15:00:00,
2013-02-11 07:05:00,31.0,28.2,30.03,East,90,0.0,0.0,89,0.00,,,0.00,WUHU216HW,2013-02-11 15:05:00,
2013-02-11 07:10:00,31.0,28.2,30.03,East,90,0.0,0.0,89,0.00,,,0.00,WUHU216HW,2013-02-11 15:10:00,
2013-02-11 07:15:00,31.0,28.2,30.03,East,90,0.0,0.0,89,0.00,,,0.00,WUHU216HW,2013-02-11 15:15:00,
2013-02-11 07:20:00,31.0,28.2,30.03,East,90,0.9,0.9,89,0.00,,,0.00,WUHU216HW,2013-02-11 15:20:00,
2013-02-11 07:25:00,31.0,27.9,30.04,East,90,0.0,0.9,88,0.00,,,0.00,WUHU216HW,2013-02-11 15:25:00,
2013-02-11 07:30:00,31.0,27.9,30.04,East,90,0.0,0.9,88,0.00,,,0.00,WUHU216HW,2013-02-11 15:30:00,
2013-02-11 07:35:00,31.1,28.1,30.04,East,90,0.0,0.4,88,0.00,,,0.00,WUHU216HW,2013-02-11 15:35:00,
2013-02-11 07:40:00,31.1,28.1,30.04,East,90,0.0,0.4,88,0.00,,,0.00,WUHU216HW,2013-02-11 15:40:00,
2013-02-11 07:45:00,31.3,28.3,30.04,East,90,0.0,0.0,88,0.00,,,0.00,WUHU216HW,2013-02-11 15:45:00,
2013-02-11 07:50:00,31.3,28.3,30.04,East,90,0.0,0.0,88,0.00,,,0.00,WUHU216HW,2013-02-11 15:50:00,
2013-02-11 07:55:00,31.5,28.5,30.04,East,90,0.0,0.7,88,0.00,,,0.00,WUHU216HW,2013-02-11 15:55:00,
2013-02-11 08:00:00,31.7,28.6,30.04,East,90,0.0,0.7,88,0.00,,,0.00,WUHU216HW,2013-02-11 16:00:00,
2013-02-11 08:05:00,31.9,28.8,30.04,East,90,0.0,0.0,88,0.00,,,0.00,WUHU216HW,2013-02-11 16:05:00,
2013-02-11 08:10:00,31.7,28.6,30.04,East,90,0.0,0.0,88,0.00,,,0.00,WUHU216HW,2013-02-11 16:10:00,
2013-02-11 08:15:00,31.9,28.8,30.04,East,90,0.0,0.0,88,0.00,,,0.00,WUHU216HW,2013-02-11 16:15:00,
2013-02-11 08:20:00,32.0,29.0,30.04,East,90,0.2,0.4,88,0.00,,,0.00,WUHU216HW,2013-02-11 16:20:00,
2013-02-11 08:25:00,32.0,29.0,30.04,East,90,0.0,0.4,88,0.00,,,0.00,WUHU216HW,2013-02-11 16:25:00,
2013-02-11 08:30:00,32.2,29.1,30.04,East,90,0.0,0.4,88,0.00,,,0.00,WUHU216HW,2013-02-11 16:30:00,
2013-02-11 08:35:00,32.4,29.3,30.04,East,90,0.0,0.4,88,0.00,,,0.00,WUHU216HW,2013-02-11 16:35:00,
2013-02-11 08:40:00,32.6,29.4,30.04,East,90,0.7,1.3,88,0.00,,,0.00,WUHU216HW,2013-02-11 16:40:00,
2013-02-11 08:45:00,32.8,29.6,30.04,East,90,0.0,1.3,88,0.00,,,0.00,WUHU216HW,2013-02-11 16:45:00,
2013-02-11 08:50:00,32.8,29.6,30.04,East,90,0.0,0.9,88,0.00,,,0.00,WUHU216HW,2013-02-11 16:50:00,
2013-02-11 08:53:00,32.9,29.8,30.04,East,90,0.0,0.2,88,0.00,,,0.00,WUHU216HW,2013-02-11 16:53:00,
2013-02-11 08:58:00,33.1,29.9,30.05,East,90,0.0,0.0,88,0.00,,,0.00,WUHU216HW,2013-02-11 16:58:00,
2013-02-11 09:03:00,33.3,30.1,30.04,East,90,0.0,0.4,88,0.00,,,0.00,WUHU216HW,2013-02-11 17:03:00,
2013-02-11 09:08:00,33.5,30.0,30.05,East,90,0.0,0.4,87,0.00,,,0.00,WUHU216HW,2013-02-11 17:08:00,
2013-02-11 09:13:00,33.5,30.0,30.04,East,90,0.0,0.4,87,0.00,,,0.00,WUHU216HW,2013-02-11 17:13:00,
2013-02-11 09:18:00,33.8,30.2,30.04,East,90,0.0,0.4,87,0.00,,,0.00,WUHU216HW,2013-02-11 17:18:00,
2013-02-11 09:23:00,34.0,30.2,30.04,East,90,0.0,0.0,86,0.00,,,0.00,WUHU216HW,2013-02-11 17:23:00,
2013-02-11 09:28:00,34.2,30.3,30.04,SSW,203,0.9,1.3,86,0.00,,,0.00,WUHU216HW,2013-02-11 17:28:00,
2013-02-11 09:34:00,34.4,30.5,30.04,NNE,23,0.2,1.6,86,0.00,,,0.00,WUHU216HW,2013-02-11 17:34:00,
2013-02-11 09:39:00,34.4,30.2,30.04,NNE,23,0.0,1.6,85,0.00,,,0.00,WUHU216HW,2013-02-11 17:39:00,
2013-02-11 09:44:00,34.4,30.5,30.05,NE,45,2.9,2.9,86,0.00,,,0.00,WUHU216HW,2013-02-11 17:44:00,
2013-02-11 09:49:00,34.7,30.6,30.04,NNE,23,3.4,4.0,85,0.00,,,0.00,WUHU216HW,2013-02-11 17:49:00,
2013-02-11 09:54:00,34.9,30.5,30.05,ENE,68,0.0,4.0,84,0.00,,,0.00,WUHU216HW,2013-02-11 17:54:00,
2013-02-11 09:59:00,35.1,31.0,30.05,North,0,0.0,3.4,85,0.00,,,0.00,WUHU216HW,2013-02-11 17:59:00,
2013-02-11 10:04:00,35.3,30.9,30.05,NNE,23,1.3,3.4,84,0.00,,,0.00,WUHU216HW,2013-02-11 18:04:00,
2013-02-11 10:09:00,35.5,31.3,30.05,NNE,23,0.0,2.0,85,0.00,,,0.00,WUHU216HW,2013-02-11 18:09:00,
2013-02-11 10:15:00,35.6,31.2,30.05,NNE,23,0.0,1.1,84,0.00,,,0.00,WUHU216HW,2013-02-11 18:15:00,
2013-02-11 10:20:00,36.0,31.9,30.05,NNE,23,0.2,2.0,85,0.00,,,0.00,WUHU216HW,2013-02-11 18:20:00,
2013-02-11 10:25:00,36.4,32.0,30.05,WNW,293,1.8,2.9,84,0.00,,,0.00,WUHU216HW,2013-02-11 18:25:00,
2013-02-11 10:30:00,36.5,32.1,30.05,WNW,293,0.0,2.9,84,0.00,,,0.00,WUHU216HW,2013-02-11 18:30:00,
2013-02-11 10:35:00,36.7,32.3,30.05,WNW,293,0.0,1.1,84,0.00,,,0.00,WUHU216HW,2013-02-11 18:35:00,
2013-02-11 10:40:00,37.1,32.7,30.05,West,270,1.6,2.0,84,0.00,,,0.00,WUHU216HW,2013-02-11 18:40:00,
2013-02-11 10:45:00,37.1,32.4,30.05,West,270,0.0,2.0,83,0.00,,,0.00,WUHU216HW,2013-02-11 18:45:00,
2013-02-11 10:50:00,37.4,32.8,30.05,West,270,0.0,1.6,83,0.00,,,0.00,WUHU216HW,2013-02-11 18:50:00,
2013-02-11 10:56:00,37.8,33.1,30.04,ESE,113,0.9,1.3,83,0.00,,,0.00,WUHU216HW,2013-02-11 18:56:00,
2013-02-11 11:01:00,38.0,32.9,30.04,ESE,113,0.0,1.3,82,0.00,,,0.00,WUHU216HW,2013-02-11 19:01:00,
2013-02-11 11:06:00,38.2,33.1,30.04,WNW,293,0.0,1.6,82,0.00,,,0.00,WUHU216HW,2013-02-11 19:06:00,
2013-02-11 11:11:00,38.3,33.0,30.04,NW,315,0.0,2.5,81,0.00,,,0.00,WUHU216HW,2013-02-11 19:11:00,
2013-02-11 11:16:00,38.7,33.4,30.04,NNW,338,0.4,2.5,81,0.00,,,0.00,WUHU216HW,2013-02-11 19:16:00,
2013-02-11 11:21:00,39.1,33.5,30.03,NW,315,0.9,1.1,80,0.00,,,0.00,WUHU216HW,2013-02-11 19:21:00,
2013-02-11 11:26:00,39.4,33.5,30.03,West,270,1.3,2.2,79,0.00,,,0.00,WUHU216HW,2013-02-11 19:26:00,
2013-02-11 11:32:00,40.0,33.9,30.03,North,0,0.4,2.0,79,0.00,,,0.00,WUHU216HW,2013-02-11 19:32:00,
2013-02-11 11:37:00,40.3,34.3,30.03,SE,135,0.9,2.0,79,0.00,,,0.00,WUHU216HW,2013-02-11 19:37:00,
2013-02-11 11:42:00,41.0,34.9,30.02,West,270,1.1,2.2,79,0.00,,,0.00,WUHU216HW,2013-02-11 19:42:00,
2013-02-11 11:47:00,41.2,34.5,30.02,West,270,0.0,2.2,77,0.00,,,0.00,WUHU216HW,2013-02-11 19:47:00,
2013-02-11 11:52:00,41.2,34.2,30.02,NE,45,0.9,2.0,76,0.00,,,0.00,WUHU216HW,2013-02-11 19:52:00,
2013-02-11 11:57:00,41.6,34.8,30.02,WSW,248,1.1,2.9,77,0.00,,,0.00,WUHU216HW,2013-02-11 19:57:00,
2013-02-11 12:02:00,41.8,34.4,30.02,WNW,293,0.7,2.9,75,0.00,,,0.00,WUHU216HW,2013-02-11 20:02:00,
2013-02-11 12:07:00,42.1,35.1,30.02,West,270,0.4,2.5,76,0.00,,,0.00,WUHU216HW,2013-02-11 20:07:00,
2013-02-11 12:13:00,42.5,35.1,30.02,NE,45,2.5,2.5,75,0.00,,,0.00,WUHU216HW,2013-02-11 20:13:00,
2013-02-11 12:18:00,42.8,35.5,30.02,West,270,1.3,2.7,75,0.00,,,0.00,WUHU216HW,2013-02-11 20:18:00,
2013-02-11 12:23:00,43.0,35.3,30.02,WSW,248,6.0,6.0,74,0.00,,,0.00,WUHU216HW,2013-02-11 20:23:00,
2013-02-11 12:28:00,43.0,35.3,30.02,WSW,248,4.5,6.0,74,0.00,,,0.00,WUHU216HW,2013-02-11 20:28:00,
2013-02-11 12:33:00,43.2,35.2,30.03,SE,135,1.1,6.0,73,0.00,,,0.00,WUHU216HW,2013-02-11 20:33:00,
2013-02-11 12:38:00,43.0,35.0,30.02,SW,225,0.7,4.5,73,0.00,,,0.00,WUHU216HW,2013-02-11 20:38:00,
2013-02-11 12:43:00,42.8,34.8,30.02,WSW,248,1.1,4.0,73,0.00,,,0.00,WUHU216HW,2013-02-11 20:43:00,
2013-02-11 12:49:00,42.7,34.7,30.02,West,270,1.8,4.3,73,0.00,,,0.00,WUHU216HW,2013-02-11 20:49:00,
2013-02-11 12:54:00,42.7,34.3,30.01,South,180,1.8,4.3,72,0.00,,,0.00,WUHU216HW,2013-02-11 20:54:00,
2013-02-11 12:59:00,42.7,34.7,30.01,WSW,248,0.7,5.1,73,0.00,,,0.00,WUHU216HW,2013-02-11 20:59:00,
2013-02-11 13:04:00,42.7,34.7,30.01,ENE,68,2.0,5.1,73,0.00,,,0.00,WUHU216HW,2013-02-11 21:04:00,
2013-02-11 13:09:00,42.7,34.3,30.00,West,270,2.0,4.7,72,0.00,,,0.00,WUHU216HW,2013-02-11 21:09:00,
2013-02-11 13:14:00,42.7,34.3,30.00,WSW,248,1.1,4.0,72,0.00,,,0.00,WUHU216HW,2013-02-11 21:14:00,
2013-02-11 13:19:00,42.8,34.5,30.00,West,270,4.7,4.7,72,0.00,,,0.00,WUHU216HW,2013-02-11 21:19:00,
2013-02-11 13:24:00,42.8,34.5,30.00,West,270,1.6,4.7,72,0.00,,,0.00,WUHU216HW,2013-02-11 21:24:00,
2013-02-11 13:30:00,42.7,34.3,30.00,West,270,2.7,3.4,72,0.00,,,0.00,WUHU216HW,2013-02-11 21:30:00,
2013-02-11 13:35:00,42.7,34.3,30.00,WSW,248,1.6,3.4,72,0.00,,,0.00,WUHU216HW,2013-02-11 21:35:00,
2013-02-11 13:40:00,42.8,34.5,30.00,West,270,1.6,3.4,72,0.00,,,0.00,WUHU216HW,2013-02-11 21:40:00,
2013-02-11 13:45:00,42.7,34.0,30.00,WNW,293,1.3,3.4,71,0.00,,,0.00,WUHU216HW,2013-02-11 21:45:00,
2013-02-11 13:50:00,42.3,33.7,30.00,North,0,0.0,3.4,71,0.00,,,0.00,WUHU216HW,2013-02-11 21:50:00,
2013-02-11 13:55:00,42.1,33.8,30.00,East,90,1.3,3.4,72,0.00,,,0.00,WUHU216HW,2013-02-11 21:55:00,
2013-02-11 14:00:00,41.9,33.6,30.01,WSW,248,1.8,7.2,72,0.00,,,0.00,WUHU216HW,2013-02-11 22:00:00,
2013-02-11 14:05:00,41.6,33.6,30.01,WSW,248,0.4,7.2,73,0.00,,,0.00,WUHU216HW,2013-02-11 22:05:00,
2013-02-11 14:11:00,41.6,33.6,30.01,WSW,248,0.7,2.5,73,0.00,,,0.00,WUHU216HW,2013-02-11 22:11:00,
2013-02-11 14:16:00,41.4,33.4,30.01,WSW,248,0.0,2.0,73,0.00,,,0.00,WUHU216HW,2013-02-11 22:16:00,
2013-02-11 14:21:00,41.4,33.4,30.01,ESE,113,0.0,1.8,73,0.00,,,0.00,WUHU216HW,2013-02-11 22:21:00,
2013-02-11 14:24:00,41.4,33.4,30.01,WSW,248,0.7,1.8,73,0.00,,,0.00,WUHU216HW,2013-02-11 22:24:00,
2013-02-11 14:27:00,41.4,33.4,30.01,WSW,248,0.4,1.8,73,0.00,,,0.00,WUHU216HW,2013-02-11 22:27:00,
2013-02-11 14:33:00,41.4,33.7,30.01,WSW,248,1.1,2.5,74,0.00,,,0.00,WUHU216HW,2013-02-11 22:33:00,
2013-02-11 14:38:00,41.2,33.5,30.01,SW,225,1.3,3.6,74,0.00,,,0.00,WUHU216HW,2013-02-11 22:38:00,
2013-02-11 14:43:00,41.2,33.5,30.01,West,270,0.4,3.6,74,0.00,,,0.00,WUHU216HW,2013-02-11 22:43:00,
2013-02-11 14:48:00,41.0,33.3,30.01,West,270,1.3,2.7,74,0.00,,,0.00,WUHU216HW,2013-02-11 22:48:00,